Wetterdaten: Sonntag, 15.11.2015
Datum Zeit Auen-Temp. Temp gefhlt Luftfeuchte Luftdruck Regen Wind Richtung Richtung Taupunkt Windben
15.11.2015 00:00 6,3 C 4,2 C 74 % 1022,5 hPa 0,0 mm 0,0 km/h (0 Bft) W-SW 247 2,0 C 0,0 km/h (0 Bft)
15.11.2015 00:05 6,6 C 4,4 C 73 % 1022,5 hPa 0,0 mm 0,0 km/h (0 Bft) W-SW 247 2,1 C 0,0 km/h (0 Bft)
15.11.2015 00:10 6,9 C 4,6 C 70 % 1022,2 hPa 0,0 mm 0,0 km/h (0 Bft) W-SW 247 1,8 C 0,0 km/h (0 Bft)
15.11.2015 00:15 7,0 C 4,7 C 69 % 1022,2 hPa 0,0 mm 0,0 km/h (0 Bft) W-SW 247 1,7 C 0,0 km/h (0 Bft)
15.11.2015 00:20 7,3 C 4,9 C 67 % 1022,2 hPa 0,0 mm 0,0 km/h (0 Bft) W-SW 247 1,6 C 0,0 km/h (0 Bft)
15.11.2015 00:25 7,5 C 5,0 C 66 % 1022,2 hPa 0,0 mm 0,0 km/h (0 Bft) W-SW 247 1,6 C 0,0 km/h (0 Bft)
15.11.2015 00:30 7,8 C 5,2 C 64 % 1021,7 hPa 0,0 mm 0,0 km/h (0 Bft) W-SW 247 1,4 C 0,0 km/h (0 Bft)
15.11.2015 00:35 7,8 C 5,2 C 63 % 1021,7 hPa 0,0 mm 0,0 km/h (0 Bft) W-SW 247 1,2 C 0,0 km/h (0 Bft)
15.11.2015 00:40 8,0 C 5,3 C 62 % 1021,7 hPa 0,0 mm 0,0 km/h (0 Bft) W-SW 247 1,2 C 0,0 km/h (0 Bft)
15.11.2015 00:45 8,1 C 5,4 C 61 % 1021,7 hPa 0,0 mm 0,0 km/h (0 Bft) W-SW 247 1,0 C 0,0 km/h (0 Bft)
15.11.2015 00:50 8,1 C 5,4 C 61 % 1021,7 hPa 0,0 mm 0,0 km/h (0 Bft) W-SW 247 1,0 C 0,0 km/h (0 Bft)
15.11.2015 00:55 8,1 C 5,4 C 61 % 1021,7 hPa 0,0 mm 0,0 km/h (0 Bft) W-SW 247 1,0 C 0,0 km/h (0 Bft)
15.11.2015 01:00 8,2 C 5,5 C 60 % 1021,7 hPa 0,0 mm 0,0 km/h (0 Bft) W-SW 247 0,9 C 0,0 km/h (0 Bft)
15.11.2015 01:05 8,3 C 5,5 C 60 % 1021,7 hPa 0,0 mm 0,0 km/h (0 Bft) W-SW 247 1,0 C 0,0 km/h (0 Bft)
15.11.2015 01:10 8,7 C 5,8 C 59 % 1021,4 hPa 0,0 mm 0,0 km/h (0 Bft) W-SW 247 1,1 C 0,0 km/h (0 Bft)
15.11.2015 01:15 9,0 C 6,0 C 58 % 1021,4 hPa 0,0 mm 0,0 km/h (0 Bft) W-SW 247 1,2 C 0,0 km/h (0 Bft)
15.11.2015 01:20 9,0 C 6,0 C 57 % 1021,4 hPa 0,0 mm 0,0 km/h (0 Bft) W-SW 247 0,9 C 0,0 km/h (0 Bft)
15.11.2015 01:25 9,1 C 6,1 C 56 % 1021,4 hPa 0,0 mm 0,0 km/h (0 Bft) W-SW 247 0,8 C 0,0 km/h (0 Bft)
15.11.2015 01:30 9,3 C 6,2 C 55 % 1021,3 hPa 0,0 mm 0,0 km/h (0 Bft) W-SW 247 0,7 C 0,0 km/h (0 Bft)
15.11.2015 01:35 9,3 C 6,2 C 54 % 1021,3 hPa 0,0 mm 0,0 km/h (0 Bft) W-SW 247 0,5 C 0,0 km/h (0 Bft)
15.11.2015 01:40 9,5 C 6,3 C 52 % 1021,3 hPa 0,0 mm 0,0 km/h (0 Bft) W-SW 247 0,1 C 0,0 km/h (0 Bft)
15.11.2015 01:45 9,7 C 6,5 C 51 % 1021,3 hPa 0,0 mm 0,0 km/h (0 Bft) W-SW 247 0,1 C 0,0 km/h (0 Bft)
15.11.2015 01:50 9,7 C 6,5 C 50 % 1021,4 hPa 0,0 mm 0,0 km/h (0 Bft) W-SW 247 -0,2 C 0,0 km/h (0 Bft)
15.11.2015 01:55 9,9 C 6,6 C 50 % 1021,4 hPa 0,0 mm 0,0 km/h (0 Bft) W-SW 247 -0,0 C 0,0 km/h (0 Bft)
15.11.2015 02:00 9,9 C 6,6 C 49 % 1021,4 hPa 0,0 mm 0,0 km/h (0 Bft) W-SW 247 -0,3 C 0,0 km/h (0 Bft)
15.11.2015 02:05 10,0 C 6,7 C 48 % 1021,4 hPa 0,0 mm 0,0 km/h (0 Bft) W-SW 247 -0,5 C 0,0 km/h (0 Bft)
15.11.2015 02:10 9,9 C 6,6 C 49 % 1021,1 hPa 0,0 mm 0,0 km/h (0 Bft) W-SW 247 -0,3 C 0,0 km/h (0 Bft)
15.11.2015 02:15 10,0 C 6,7 C 48 % 1021,1 hPa 0,0 mm 0,0 km/h (0 Bft) W-SW 247 -0,5 C 0,0 km/h (0 Bft)
15.11.2015 02:20 10,0 C 6,7 C 47 % 1021,1 hPa 0,0 mm 0,0 km/h (0 Bft) W-SW 247 -0,8 C 0,0 km/h (0 Bft)
15.11.2015 02:25 10,0 C 6,7 C 47 % 1021,1 hPa 0,0 mm 0,0 km/h (0 Bft) W-SW 247 -0,8 C 0,0 km/h (0 Bft)
15.11.2015 02:30 10,1 C 6,7 C 47 % 1021,2 hPa 0,0 mm 0,0 km/h (0 Bft) W-SW 247 -0,7 C 0,0 km/h (0 Bft)
15.11.2015 02:35 10,1 C 6,7 C 48 % 1021,2 hPa 0,0 mm 0,0 km/h (0 Bft) W-SW 247 -0,4 C 0,0 km/h (0 Bft)
15.11.2015 02:40 10,0 C 6,7 C 49 % 1021,2 hPa 0,0 mm 0,0 km/h (0 Bft) W-SW 247 -0,2 C 0,0 km/h (0 Bft)
15.11.2015 02:45 9,9 C 6,6 C 49 % 1021,2 hPa 0,0 mm 0,0 km/h (0 Bft) W-SW 247 -0,3 C 0,0 km/h (0 Bft)
15.11.2015 02:50 9,9 C 6,6 C 50 % 1020,8 hPa 0,0 mm 0,0 km/h (0 Bft) W-SW 247 -0,0 C 0,0 km/h (0 Bft)
15.11.2015 02:54 9,7 C 6,5 C 51 % 1020,8 hPa 0,0 mm 0,0 km/h (0 Bft) W-SW 247 0,1 C 0,0 km/h (0 Bft)
15.11.2015 02:55 9,7 C 6,5 C 51 % 1020,8 hPa 0,0 mm 0,0 km/h (0 Bft) W-SW 247 0,1 C 0,0 km/h (0 Bft)
15.11.2015 03:00 9,6 C 6,4 C 52 % 1020,8 hPa 0,0 mm 0,0 km/h (0 Bft) W-SW 247 0,2 C 0,0 km/h (0 Bft)
15.11.2015 03:05 9,5 C 6,3 C 52 % 1020,8 hPa 0,0 mm 0,0 km/h (0 Bft) W 270 0,1 C 0,0 km/h (0 Bft)
15.11.2015 03:10 9,5 C 6,3 C 52 % 1020,8 hPa 0,0 mm 0,0 km/h (0 Bft) W 270 0,1 C 0,0 km/h (0 Bft)
15.11.2015 03:15 9,7 C 8,4 C 53 % 1025,2 hPa 0,0 mm 15,3 km/h (3 Bft) W-SW 247 0,6 C 18,4 km/h (3 Bft)
15.11.2015 03:20 9,7 C 9,4 C 53 % 1025,2 hPa 0,0 mm 12,9 km/h (3 Bft) W-SW 247 0,6 C 14,0 km/h (3 Bft)
15.11.2015 03:25 9,9 C 9,6 C 53 % 1025,2 hPa 0,0 mm 14,2 km/h (3 Bft) W-NW 292 0,8 C 12,4 km/h (3 Bft)
15.11.2015 03:30 9,9 C 9,6 C 53 % 1025,2 hPa 0,0 mm 14,0 km/h (3 Bft) SW 225 0,8 C 42,2 km/h (6 Bft)
15.11.2015 03:35 10,3 C 9,9 C 51 % 1020,5 hPa 0,0 mm 15,0 km/h (3 Bft) W 270 0,6 C 8,8 km/h (2 Bft)
15.11.2015 03:40 10,4 C 9,9 C 50 % 1020,5 hPa 0,0 mm 16,8 km/h (3 Bft) SW 225 0,4 C 21,2 km/h (4 Bft)
15.11.2015 03:45 10,5 C 10,2 C 49 % 1020,5 hPa 0,0 mm 13,5 km/h (3 Bft) W-SW 247 0,2 C 29,3 km/h (5 Bft)
15.11.2015 03:50 10,5 C 10,2 C 49 % 1020,5 hPa 0,0 mm 13,7 km/h (3 Bft) W-SW 247 0,2 C 26,7 km/h (4 Bft)
15.11.2015 03:55 10,6 C 10,3 C 48 % 1020,1 hPa 0,0 mm 15,0 km/h (3 Bft) SW 225 0,1 C 15,0 km/h (3 Bft)
15.11.2015 04:00 10,7 C 10,3 C 47 % 1020,1 hPa 0,0 mm 14,8 km/h (3 Bft) W-SW 247 -0,1 C 22,0 km/h (4 Bft)
15.11.2015 04:05 10,7 C 10,5 C 46 % 1020,1 hPa 0,0 mm 13,7 km/h (3 Bft) N-NW 337 -0,4 C 12,2 km/h (2 Bft)
15.11.2015 04:10 10,7 C 10,4 C 45 % 1020,1 hPa 0,0 mm 13,5 km/h (3 Bft) W 270 -0,7 C 7,0 km/h (2 Bft)
15.11.2015 04:15 10,6 C 10,4 C 45 % 1019,9 hPa 0,0 mm 10,4 km/h (2 Bft) W-SW 247 -0,8 C 7,0 km/h (2 Bft)
15.11.2015 04:20 10,7 C 10,5 C 45 % 1019,9 hPa 0,0 mm 10,1 km/h (2 Bft) SW 225 -0,7 C 17,6 km/h (3 Bft)
15.11.2015 04:25 10,9 C 10,7 C 45 % 1019,9 hPa 0,0 mm 12,4 km/h (3 Bft) W 270 -0,6 C 21,8 km/h (4 Bft)
15.11.2015 04:30 11,0 C 10,8 C 45 % 1019,9 hPa 0,0 mm 13,5 km/h (3 Bft) W 270 -0,5 C 12,9 km/h (3 Bft)
15.11.2015 04:35 11,3 C 10,9 C 44 % 1019,8 hPa 0,0 mm 15,8 km/h (3 Bft) S-SW 202 -0,5 C 18,9 km/h (3 Bft)
15.11.2015 04:40 11,4 C 11,1 C 43 % 1019,8 hPa 0,0 mm 17,1 km/h (3 Bft) SW 225 -0,7 C 14,5 km/h (3 Bft)
15.11.2015 04:45 11,4 C 11,0 C 43 % 1019,8 hPa 0,0 mm 16,6 km/h (3 Bft) S 180 -0,7 C 16,8 km/h (3 Bft)
15.11.2015 04:50 11,5 C 11,1 C 41 % 1019,8 hPa 0,0 mm 16,8 km/h (3 Bft) W-NW 292 -1,3 C 15,8 km/h (3 Bft)
15.11.2015 04:55 11,3 C 11,1 C 41 % 1019,6 hPa 0,0 mm 15,5 km/h (3 Bft) W-SW 247 -1,5 C 18,9 km/h (3 Bft)
15.11.2015 05:00 11,3 C 11,1 C 41 % 1019,6 hPa 0,0 mm 14,2 km/h (3 Bft) W-NW 292 -1,5 C 27,2 km/h (4 Bft)
15.11.2015 05:05 11,3 C 11,1 C 39 % 1019,6 hPa 0,0 mm 13,7 km/h (3 Bft) W-NW 292 -2,1 C 10,6 km/h (2 Bft)
15.11.2015 05:10 11,2 C 11,0 C 40 % 1019,6 hPa 0,0 mm 12,9 km/h (3 Bft) W-NW 292 -1,9 C 10,4 km/h (2 Bft)
15.11.2015 05:15 11,0 C 10,9 C 39 % 1019,6 hPa 0,0 mm 10,1 km/h (2 Bft) W-NW 292 -2,4 C 7,5 km/h (2 Bft)
15.11.2015 05:20 10,8 C 10,8 C 39 % 1019,6 hPa 0,0 mm 9,8 km/h (2 Bft) W-SW 247 -2,6 C 8,3 km/h (2 Bft)
15.11.2015 05:25 10,8 C 10,8 C 39 % 1019,6 hPa 0,0 mm 8,5 km/h (2 Bft) W-NW 292 -2,6 C 7,3 km/h (2 Bft)
15.11.2015 05:30 10,7 C 10,7 C 39 % 1019,6 hPa 0,0 mm 8,3 km/h (2 Bft) W-SW 247 -2,7 C 4,4 km/h (1 Bft)
15.11.2015 05:35 10,7 C 10,7 C 39 % 1019,2 hPa 0,0 mm 7,0 km/h (2 Bft) NW 315 -2,7 C 10,1 km/h (2 Bft)
15.11.2015 05:40 10,5 C 10,6 C 38 % 1019,2 hPa 0,0 mm 6,2 km/h (2 Bft) S-SW 202 -3,2 C 9,6 km/h (2 Bft)
15.11.2015 05:45 10,5 C 10,5 C 38 % 1019,2 hPa 0,0 mm 6,2 km/h (2 Bft) SW 225 -3,2 C 7,8 km/h (2 Bft)
15.11.2015 05:50 10,5 C 10,5 C 38 % 1019,2 hPa 0,0 mm 6,2 km/h (2 Bft) W 270 -3,2 C 9,6 km/h (2 Bft)
15.11.2015 05:55 10,5 C 10,5 C 38 % 1018,7 hPa 0,0 mm 6,2 km/h (2 Bft) N-NW 337 -3,2 C 9,8 km/h (2 Bft)
15.11.2015 06:00 10,7 C 10,6 C 39 % 1018,7 hPa 0,0 mm 6,7 km/h (2 Bft) W-SW 247 -2,7 C 8,3 km/h (2 Bft)
15.11.2015 06:05 10,9 C 10,7 C 39 % 1018,7 hPa 0,0 mm 8,0 km/h (2 Bft) SW 225 -2,5 C 27,7 km/h (4 Bft)
15.11.2015 06:10 11,1 C 10,9 C 40 % 1018,7 hPa 0,0 mm 9,1 km/h (2 Bft) W 270 -2,0 C 29,5 km/h (5 Bft)
15.11.2015 06:15 11,2 C 10,9 C 42 % 1018,4 hPa 0,0 mm 11,1 km/h (2 Bft) W 270 -1,2 C 20,2 km/h (4 Bft)
15.11.2015 06:20 11,3 C 11,2 C 42 % 1018,4 hPa 0,0 mm 9,6 km/h (2 Bft) W 270 -1,1 C 7,8 km/h (2 Bft)
15.11.2015 06:25 11,4 C 11,3 C 42 % 1018,4 hPa 0,0 mm 8,5 km/h (2 Bft) W 270 -1,0 C 25,4 km/h (4 Bft)
15.11.2015 06:30 11,8 C 11,6 C 42 % 1018,4 hPa 0,0 mm 12,4 km/h (3 Bft) W 270 -0,7 C 32,9 km/h (5 Bft)
15.11.2015 06:35 11,6 C 11,4 C 42 % 1018,4 hPa 0,0 mm 15,3 km/h (3 Bft) N-NO 22 -0,9 C 16,1 km/h (3 Bft)
15.11.2015 06:40 11,6 C 11,4 C 42 % 1018,4 hPa 0,0 mm 14,2 km/h (3 Bft) NW 315 -0,9 C 26,9 km/h (4 Bft)
15.11.2015 06:45 11,5 C 11,3 C 41 % 1018,4 hPa 0,0 mm 15,5 km/h (3 Bft) NW 315 -1,3 C 28,5 km/h (4 Bft)
15.11.2015 06:50 11,3 C 11,1 C 41 % 1018,4 hPa 0,0 mm 16,3 km/h (3 Bft) W 270 -1,5 C 11,7 km/h (2 Bft)
15.11.2015 06:55 11,1 C 10,9 C 40 % 1019,3 hPa 0,0 mm 18,6 km/h (3 Bft) W-NW 292 -2,0 C 30,8 km/h (5 Bft)
15.11.2015 07:00 10,9 C 10,5 C 40 % 1019,3 hPa 0,0 mm 17,6 km/h (3 Bft) W 270 -2,2 C 19,4 km/h (3 Bft)
15.11.2015 07:05 10,8 C 10,6 C 41 % 1019,3 hPa 0,0 mm 17,1 km/h (3 Bft) W-SW 247 -1,9 C 14,8 km/h (3 Bft)
15.11.2015 07:10 10,7 C 10,4 C 41 % 1019,3 hPa 0,0 mm 17,6 km/h (3 Bft) W-SW 247 -2,0 C 22,0 km/h (4 Bft)
15.11.2015 07:15 10,5 C 10,2 C 41 % 1018,9 hPa 0,0 mm 16,6 km/h (3 Bft) W 270 -2,2 C 14,8 km/h (3 Bft)
15.11.2015 07:20 10,4 C 10,1 C 41 % 1018,9 hPa 0,0 mm 15,8 km/h (3 Bft) W-NW 292 -2,3 C 17,1 km/h (3 Bft)
15.11.2015 07:25 10,2 C 10,0 C 42 % 1018,9 hPa 0,0 mm 13,2 km/h (3 Bft) W 270 -2,1 C 9,3 km/h (2 Bft)
15.11.2015 07:30 10,1 C 9,9 C 42 % 1018,9 hPa 0,0 mm 11,9 km/h (2 Bft) W-SW 247 -2,2 C 11,7 km/h (2 Bft)
15.11.2015 07:35 9,9 C 9,7 C 43 % 1018,9 hPa 0,0 mm 9,8 km/h (2 Bft) W 270 -2,1 C 17,1 km/h (3 Bft)
15.11.2015 07:40 10,1 C 9,8 C 44 % 1018,9 hPa 0,0 mm 10,6 km/h (2 Bft) W-SW 247 -1,6 C 15,3 km/h (3 Bft)
15.11.2015 07:45 10,0 C 9,7 C 44 % 1018,9 hPa 0,0 mm 11,9 km/h (2 Bft) W-SW 247 -1,7 C 10,4 km/h (2 Bft)
15.11.2015 07:50 10,0 C 9,7 C 45 % 1018,9 hPa 0,0 mm 11,9 km/h (2 Bft) W-SW 247 -1,4 C 15,0 km/h (3 Bft)
15.11.2015 07:55 10,0 C 9,8 C 46 % 1018,5 hPa 0,0 mm 12,7 km/h (3 Bft) W-NW 292 -1,1 C 14,0 km/h (3 Bft)
15.11.2015 08:00 10,0 C 9,7 C 46 % 1018,5 hPa 0,0 mm 12,7 km/h (3 Bft) SW 225 -1,1 C 19,2 km/h (3 Bft)
15.11.2015 08:05 9,8 C 9,6 C 47 % 1018,5 hPa 0,0 mm 9,6 km/h (2 Bft) SW 225 -1,0 C 4,1 km/h (1 Bft)
15.11.2015 08:10 9,9 C 9,7 C 48 % 1018,5 hPa 0,0 mm 8,3 km/h (2 Bft) SW 225 -0,6 C 9,6 km/h (2 Bft)
15.11.2015 08:15 9,9 C 9,9 C 48 % 1019,6 hPa 0,0 mm 6,7 km/h (2 Bft) W-SW 247 -0,6 C 7,8 km/h (2 Bft)
15.11.2015 08:20 10,2 C 10,1 C 49 % 1019,6 hPa 0,0 mm 7,5 km/h (2 Bft) W-SW 247 -0,0 C 25,1 km/h (4 Bft)
15.11.2015 08:25 10,9 C 10,5 C 50 % 1019,6 hPa 0,0 mm 12,2 km/h (2 Bft) N-NO 22 0,9 C 23,0 km/h (4 Bft)
15.11.2015 08:30 11,1 C 10,8 C 51 % 1019,6 hPa 0,0 mm 16,3 km/h (3 Bft) W-SW 247 1,4 C 23,3 km/h (4 Bft)
15.11.2015 08:35 11,2 C 11,0 C 51 % 1019,3 hPa 0,0 mm 16,1 km/h (3 Bft) W-SW 247 1,4 C 19,7 km/h (3 Bft)
15.11.2015 08:40 11,7 C 11,4 C 51 % 1019,3 hPa 0,0 mm 14,5 km/h (3 Bft) W 270 1,9 C 12,9 km/h (3 Bft)
15.11.2015 08:45 11,9 C 11,9 C 52 % 1019,3 hPa 0,0 mm 11,9 km/h (2 Bft) W-SW 247 2,4 C 17,3 km/h (3 Bft)
15.11.2015 08:50 12,1 C 12,2 C 52 % 1019,3 hPa 0,0 mm 10,1 km/h (2 Bft) W-NW 292 2,5 C 23,0 km/h (4 Bft)
15.11.2015 08:55 12,6 C 12,6 C 53 % 1019,2 hPa 0,0 mm 12,2 km/h (2 Bft) W-SW 247 3,3 C 44,0 km/h (6 Bft)
15.11.2015 09:00 13,0 C 13,0 C 51 % 1019,2 hPa 0,0 mm 13,2 km/h (3 Bft) NW 315 3,1 C 14,2 km/h (3 Bft)
15.11.2015 09:05 13,1 C 13,2 C 51 % 1019,2 hPa 0,0 mm 12,2 km/h (2 Bft) W-SW 247 3,2 C 8,8 km/h (2 Bft)
15.11.2015 09:10 13,3 C 13,5 C 51 % 1019,2 hPa 0,0 mm 11,7 km/h (2 Bft) W-SW 247 3,4 C 13,2 km/h (3 Bft)
15.11.2015 09:15 13,6 C 13,7 C 50 % 1019,8 hPa 0,0 mm 17,3 km/h (3 Bft) W 270 3,4 C 19,7 km/h (3 Bft)
15.11.2015 09:20 13,6 C 13,7 C 50 % 1019,8 hPa 0,0 mm 18,1 km/h (3 Bft) W 270 3,4 C 18,1 km/h (3 Bft)
15.11.2015 09:25 13,8 C 14,0 C 50 % 1019,8 hPa 0,0 mm 13,2 km/h (3 Bft) W-SW 247 3,6 C 19,4 km/h (3 Bft)
15.11.2015 09:30 13,8 C 14,3 C 50 % 1019,8 hPa 0,0 mm 12,9 km/h (3 Bft) W-SW 247 3,6 C 10,9 km/h (2 Bft)
15.11.2015 09:35 14,0 C 14,5 C 50 % 1018,9 hPa 0,0 mm 14,5 km/h (3 Bft) W 270 3,7 C 38,6 km/h (5 Bft)
15.11.2015 09:40 14,2 C 14,7 C 49 % 1018,9 hPa 0,0 mm 15,8 km/h (3 Bft) W 270 3,6 C 46,1 km/h (6 Bft)
15.11.2015 09:45 14,3 C 14,8 C 49 % 1018,9 hPa 0,0 mm 16,1 km/h (3 Bft) W-SW 247 3,7 C 23,8 km/h (4 Bft)
15.11.2015 09:50 14,3 C 14,8 C 49 % 1018,9 hPa 0,0 mm 17,6 km/h (3 Bft) W 270 3,7 C 18,4 km/h (3 Bft)
15.11.2015 09:55 14,4 C 14,9 C 49 % 1019,6 hPa 0,0 mm 16,8 km/h (3 Bft) SW 225 3,8 C 22,0 km/h (4 Bft)
15.11.2015 10:00 14,5 C 14,8 C 49 % 1019,6 hPa 0,0 mm 16,3 km/h (3 Bft) SW 225 3,9 C 22,0 km/h (4 Bft)
15.11.2015 10:05 14,5 C 15,0 C 50 % 1019,6 hPa 0,0 mm 15,5 km/h (3 Bft) NW 315 4,2 C 17,1 km/h (3 Bft)
15.11.2015 10:10 14,6 C 15,2 C 50 % 1019,6 hPa 0,0 mm 14,2 km/h (3 Bft) W-SW 247 4,3 C 14,0 km/h (3 Bft)
15.11.2015 10:15 14,7 C 15,4 C 51 % 1023,6 hPa 0,0 mm 16,8 km/h (3 Bft) W-NW 292 4,7 C 41,4 km/h (6 Bft)
15.11.2015 10:20 14,8 C 15,5 C 51 % 1023,6 hPa 0,0 mm 17,6 km/h (3 Bft) W-SW 247 4,8 C 19,7 km/h (3 Bft)
15.11.2015 10:25 14,9 C 15,4 C 51 % 1023,6 hPa 0,0 mm 17,6 km/h (3 Bft) W-SW 247 4,9 C 55,2 km/h (7 Bft)
15.11.2015 10:30 14,9 C 15,4 C 52 % 1023,6 hPa 0,0 mm 17,1 km/h (3 Bft) W-NW 292 5,1 C 19,7 km/h (3 Bft)
15.11.2015 10:35 14,8 C 15,2 C 52 % 1023,5 hPa 0,0 mm 16,3 km/h (3 Bft) W-SW 247 5,0 C 22,3 km/h (4 Bft)
15.11.2015 10:40 14,9 C 15,4 C 53 % 1023,5 hPa 0,0 mm 15,0 km/h (3 Bft) W-SW 247 5,4 C 20,2 km/h (4 Bft)
15.11.2015 10:45 15,1 C 15,7 C 53 % 1023,5 hPa 0,0 mm 15,5 km/h (3 Bft) W 270 5,6 C 17,6 km/h (3 Bft)
15.11.2015 10:50 15,1 C 15,9 C 53 % 1023,5 hPa 0,0 mm 14,8 km/h (3 Bft) NW 315 5,6 C 14,5 km/h (3 Bft)
15.11.2015 10:55 15,2 C 16,1 C 54 % 1019,1 hPa 0,0 mm 14,5 km/h (3 Bft) W 270 6,0 C 18,6 km/h (3 Bft)
15.11.2015 11:00 15,3 C 16,2 C 54 % 1019,1 hPa 0,0 mm 14,8 km/h (3 Bft) W-SW 247 6,0 C 16,6 km/h (3 Bft)
15.11.2015 11:05 15,5 C 16,4 C 54 % 1019,1 hPa 0,0 mm 14,2 km/h (3 Bft) SW 225 6,2 C 19,2 km/h (3 Bft)
15.11.2015 11:10 15,6 C 16,5 C 54 % 1019,1 hPa 0,0 mm 16,3 km/h (3 Bft) W 270 6,3 C 43,5 km/h (6 Bft)
15.11.2015 11:15 15,7 C 16,5 C 55 % 1018,9 hPa 0,0 mm 17,6 km/h (3 Bft) W 270 6,7 C 37,3 km/h (5 Bft)
15.11.2015 11:20 15,7 C 16,6 C 55 % 1018,9 hPa 0,0 mm 17,1 km/h (3 Bft) W-SW 247 6,7 C 21,2 km/h (4 Bft)
15.11.2015 11:25 15,8 C 16,6 C 55 % 1018,9 hPa 0,0 mm 17,9 km/h (3 Bft) W-SW 247 6,8 C 24,3 km/h (4 Bft)
15.11.2015 11:30 15,9 C 16,6 C 55 % 1018,9 hPa 0,0 mm 16,8 km/h (3 Bft) SW 225 6,9 C 21,5 km/h (4 Bft)
15.11.2015 11:35 15,9 C 16,7 C 54 % 1018,8 hPa 0,0 mm 16,6 km/h (3 Bft) W-NW 292 6,6 C 38,8 km/h (5 Bft)
15.11.2015 11:40 16,0 C 16,7 C 52 % 1018,8 hPa 0,0 mm 17,6 km/h (3 Bft) W-SW 247 6,2 C 18,1 km/h (3 Bft)
15.11.2015 11:45 16,1 C 17,0 C 52 % 1018,8 hPa 0,0 mm 18,9 km/h (3 Bft) W-SW 247 6,2 C 25,9 km/h (4 Bft)
15.11.2015 11:50 16,3 C 17,4 C 52 % 1018,8 hPa 0,0 mm 16,3 km/h (3 Bft) W-SW 247 6,4 C 18,4 km/h (3 Bft)
15.11.2015 11:55 16,1 C 17,2 C 51 % 1022,9 hPa 0,0 mm 17,1 km/h (3 Bft) W-SW 247 6,0 C 42,7 km/h (6 Bft)
15.11.2015 12:00 16,0 C 16,9 C 51 % 1022,9 hPa 0,0 mm 19,2 km/h (3 Bft) W-SW 247 5,9 C 46,6 km/h (6 Bft)
15.11.2015 12:05 16,2 C 16,8 C 51 % 1022,9 hPa 0,0 mm 17,9 km/h (3 Bft) W 270 6,1 C 21,8 km/h (4 Bft)
15.11.2015 12:10 16,3 C 17,0 C 50 % 1022,9 hPa 0,0 mm 18,1 km/h (3 Bft) W 270 5,9 C 18,1 km/h (3 Bft)
15.11.2015 12:15 16,3 C 17,1 C 50 % 1018,8 hPa 0,0 mm 19,7 km/h (3 Bft) W-SW 247 5,9 C 24,6 km/h (4 Bft)
15.11.2015 12:20 16,3 C 17,0 C 50 % 1018,8 hPa 0,0 mm 19,4 km/h (3 Bft) W 270 5,9 C 15,5 km/h (3 Bft)
15.11.2015 12:25 16,4 C 16,9 C 50 % 1018,8 hPa 0,0 mm 18,6 km/h (3 Bft) W 270 6,0 C 27,2 km/h (4 Bft)
15.11.2015 12:30 16,4 C 17,0 C 50 % 1018,8 hPa 0,0 mm 18,1 km/h (3 Bft) W-SW 247 6,0 C 17,3 km/h (3 Bft)
15.11.2015 12:35 16,4 C 16,9 C 49 % 1018,5 hPa 0,0 mm 19,4 km/h (3 Bft) W-SW 247 5,7 C 22,5 km/h (4 Bft)
15.11.2015 12:40 16,4 C 16,8 C 49 % 1018,5 hPa 0,0 mm 20,2 km/h (4 Bft) W-NW 292 5,7 C 20,7 km/h (4 Bft)
15.11.2015 12:45 16,4 C 16,6 C 49 % 1018,5 hPa 0,0 mm 18,9 km/h (3 Bft) W 270 5,7 C 41,2 km/h (6 Bft)
15.11.2015 12:50 16,4 C 16,6 C 48 % 1018,5 hPa 0,0 mm 19,7 km/h (3 Bft) W-SW 247 5,4 C 20,2 km/h (4 Bft)
15.11.2015 12:55 16,4 C 16,5 C 48 % 1023,6 hPa 0,0 mm 20,5 km/h (4 Bft) W 270 5,4 C 33,7 km/h (5 Bft)
15.11.2015 13:00 16,4 C 16,5 C 48 % 1023,6 hPa 0,0 mm 19,2 km/h (3 Bft) W-SW 247 5,4 C 34,4 km/h (5 Bft)
15.11.2015 13:05 16,6 C 16,8 C 47 % 1023,6 hPa 0,0 mm 18,9 km/h (3 Bft) W 270 5,2 C 30,6 km/h (5 Bft)
15.11.2015 13:10 16,7 C 16,9 C 47 % 1023,6 hPa 0,0 mm 18,4 km/h (3 Bft) W 270 5,3 C 18,9 km/h (3 Bft)
15.11.2015 13:15 16,8 C 16,9 C 46 % 1019,1 hPa 0,0 mm 21,8 km/h (4 Bft) W 270 5,1 C 58,0 km/h (7 Bft)
15.11.2015 13:20 16,8 C 17,1 C 46 % 1019,1 hPa 0,0 mm 22,8 km/h (4 Bft) W-NW 292 5,1 C 57,7 km/h (7 Bft)
15.11.2015 13:25 17,0 C 18,2 C 46 % 1019,1 hPa 0,0 mm 18,9 km/h (3 Bft) W-NW 292 5,3 C 21,5 km/h (4 Bft)
15.11.2015 13:30 17,3 C 19,2 C 46 % 1019,1 hPa 0,0 mm 18,1 km/h (3 Bft) W-NW 292 5,6 C 21,5 km/h (4 Bft)
15.11.2015 13:35 17,7 C 20,1 C 45 % 1019,7 hPa 0,0 mm 17,6 km/h (3 Bft) W 270 5,6 C 25,6 km/h (4 Bft)
15.11.2015 13:40 17,8 C 20,4 C 44 % 1019,7 hPa 0,0 mm 17,3 km/h (3 Bft) W 270 5,4 C 11,7 km/h (2 Bft)
15.11.2015 13:45 17,9 C 20,6 C 44 % 1019,7 hPa 0,0 mm 17,9 km/h (3 Bft) W-SW 247 5,5 C 21,5 km/h (4 Bft)
15.11.2015 13:50 17,8 C 20,6 C 44 % 1019,7 hPa 0,0 mm 17,6 km/h (3 Bft) S 180 5,4 C 27,7 km/h (4 Bft)
15.11.2015 13:55 17,7 C 20,6 C 44 % 1020,6 hPa 0,0 mm 18,9 km/h (3 Bft) W 270 5,3 C 58,0 km/h (7 Bft)
15.11.2015 14:00 17,5 C 20,4 C 44 % 1020,6 hPa 0,0 mm 19,9 km/h (4 Bft) W 270 5,1 C 31,6 km/h (5 Bft)
15.11.2015 14:05 17,2 C 20,0 C 44 % 1020,6 hPa 0,0 mm 20,5 km/h (4 Bft) W-SW 247 4,8 C 17,6 km/h (3 Bft)
15.11.2015 14:10 17,0 C 19,8 C 44 % 1020,6 hPa 0,0 mm 17,9 km/h (3 Bft) W 270 4,7 C 18,4 km/h (3 Bft)
15.11.2015 14:15 16,4 C 18,4 C 45 % 1020,6 hPa 0,0 mm 16,6 km/h (3 Bft) SW 225 4,4 C 15,0 km/h (3 Bft)
15.11.2015 14:20 16,4 C 17,6 C 45 % 1020,6 hPa 0,0 mm 17,6 km/h (3 Bft) W 270 4,4 C 26,9 km/h (4 Bft)
15.11.2015 14:25 16,6 C 17,6 C 45 % 1020,6 hPa 0,0 mm 17,9 km/h (3 Bft) SW 225 4,6 C 23,3 km/h (4 Bft)
15.11.2015 14:30 16,8 C 18,2 C 45 % 1020,6 hPa 0,0 mm 17,6 km/h (3 Bft) W 270 4,8 C 15,0 km/h (3 Bft)
15.11.2015 14:35 16,9 C 18,8 C 45 % 1019,7 hPa 0,0 mm 16,8 km/h (3 Bft) S-SW 202 4,9 C 12,2 km/h (2 Bft)
15.11.2015 14:40 16,9 C 19,1 C 45 % 1019,7 hPa 0,0 mm 16,8 km/h (3 Bft) W-NW 292 4,9 C 23,6 km/h (4 Bft)
15.11.2015 14:45 16,7 C 18,9 C 45 % 1019,7 hPa 0,0 mm 16,8 km/h (3 Bft) W 270 4,7 C 25,9 km/h (4 Bft)
15.11.2015 14:50 16,4 C 18,2 C 45 % 1019,7 hPa 0,0 mm 16,1 km/h (3 Bft) W 270 4,4 C 19,9 km/h (4 Bft)
15.11.2015 14:55 16,0 C 16,8 C 46 % 1019,6 hPa 0,0 mm 17,1 km/h (3 Bft) SW 225 4,4 C 15,5 km/h (3 Bft)
15.11.2015 14:56 16,0 C 16,6 C 46 % 1019,6 hPa 0,0 mm 17,1 km/h (3 Bft) SW 225 4,4 C 15,5 km/h (3 Bft)
15.11.2015 15:00 16,0 C 16,6 C 46 % 1019,6 hPa 0,0 mm 17,1 km/h (3 Bft) SW 225 4,4 C 15,5 km/h (3 Bft)
15.11.2015 15:05 15,9 C 16,3 C 46 % 1019,6 hPa 0,0 mm 17,1 km/h (3 Bft) W-SW 247 4,3 C 33,4 km/h (5 Bft)
15.11.2015 15:10 15,6 C 15,9 C 47 % 1019,6 hPa 0,0 mm 15,3 km/h (3 Bft) W 270 4,3 C 8,8 km/h (2 Bft)
15.11.2015 15:15 15,5 C 15,8 C 48 % 1019,8 hPa 0,0 mm 13,2 km/h (3 Bft) NW 315 4,5 C 18,9 km/h (3 Bft)
15.11.2015 15:20 15,4 C 15,7 C 48 % 1019,8 hPa 0,0 mm 13,5 km/h (3 Bft) W-SW 247 4,4 C 30,0 km/h (5 Bft)
15.11.2015 15:25 15,3 C 15,5 C 48 % 1019,8 hPa 0,0 mm 13,5 km/h (3 Bft) W-SW 247 4,4 C 15,5 km/h (3 Bft)
15.11.2015 15:30 15,2 C 15,3 C 48 % 1019,8 hPa 0,0 mm 13,2 km/h (3 Bft) W 270 4,3 C 16,3 km/h (3 Bft)
15.11.2015 15:35 15,2 C 15,2 C 49 % 1019,3 hPa 0,0 mm 14,2 km/h (3 Bft) W 270 4,6 C 18,6 km/h (3 Bft)
15.11.2015 15:40 14,9 C 14,9 C 49 % 1019,3 hPa 0,0 mm 13,2 km/h (3 Bft) O-NO 67 4,3 C 15,5 km/h (3 Bft)
15.11.2015 15:45 15,1 C 15,0 C 49 % 1019,3 hPa 0,0 mm 12,7 km/h (3 Bft) S-SW 202 4,5 C 19,2 km/h (3 Bft)
15.11.2015 15:50 15,1 C 15,1 C 49 % 1019,3 hPa 0,0 mm 12,7 km/h (3 Bft) NW 315 4,5 C 23,0 km/h (4 Bft)
15.11.2015 15:55 15,1 C 15,1 C 49 % 1019,2 hPa 0,0 mm 12,7 km/h (3 Bft) W 270 4,5 C 24,3 km/h (4 Bft)
15.11.2015 16:00 15,2 C 15,1 C 49 % 1019,2 hPa 0,0 mm 14,2 km/h (3 Bft) W-SW 247 4,6 C 19,7 km/h (3 Bft)
15.11.2015 16:05 15,3 C 15,2 C 49 % 1019,2 hPa 0,0 mm 18,1 km/h (3 Bft) NW 315 4,7 C 29,3 km/h (5 Bft)
15.11.2015 16:10 15,1 C 14,9 C 49 % 1019,2 hPa 0,0 mm 16,8 km/h (3 Bft) SW 225 4,5 C 14,8 km/h (3 Bft)
15.11.2015 16:15 15,0 C 14,9 C 49 % 1019,1 hPa 0,0 mm 15,8 km/h (3 Bft) SW 225 4,4 C 22,3 km/h (4 Bft)
15.11.2015 16:20 14,8 C 14,7 C 49 % 1019,1 hPa 0,0 mm 14,0 km/h (3 Bft) S 180 4,2 C 10,9 km/h (2 Bft)
15.11.2015 16:25 14,5 C 14,4 C 49 % 1019,1 hPa 0,0 mm 12,4 km/h (3 Bft) W-SW 247 3,9 C 15,3 km/h (3 Bft)
15.11.2015 16:30 14,5 C 14,4 C 49 % 1019,1 hPa 0,0 mm 11,7 km/h (2 Bft) W-SW 247 3,9 C 8,0 km/h (2 Bft)
15.11.2015 16:35 14,3 C 14,2 C 50 % 1024,0 hPa 0,0 mm 11,9 km/h (2 Bft) SW 225 4,0 C 18,6 km/h (3 Bft)
15.11.2015 16:40 14,5 C 14,3 C 50 % 1024,0 hPa 0,0 mm 12,4 km/h (3 Bft) W-SW 247 4,2 C 13,2 km/h (3 Bft)
15.11.2015 16:45 14,2 C 14,1 C 50 % 1024,0 hPa 0,0 mm 12,2 km/h (2 Bft) S-SO 157 3,9 C 15,3 km/h (3 Bft)
15.11.2015 16:50 14,0 C 13,9 C 50 % 1024,0 hPa 0,0 mm 9,6 km/h (2 Bft) S-SW 202 3,7 C 12,9 km/h (3 Bft)
15.11.2015 16:55 14,0 C 13,9 C 51 % 1023,9 hPa 0,0 mm 9,3 km/h (2 Bft) W-SW 247 4,0 C 10,4 km/h (2 Bft)
15.11.2015 17:00 14,1 C 13,9 C 51 % 1023,9 hPa 0,0 mm 10,9 km/h (2 Bft) W 270 4,1 C 12,7 km/h (3 Bft)
15.11.2015 17:05 14,0 C 13,8 C 51 % 1023,9 hPa 0,0 mm 11,4 km/h (2 Bft) W-SW 247 4,0 C 11,7 km/h (2 Bft)
15.11.2015 17:10 13,8 C 13,7 C 51 % 1023,9 hPa 0,0 mm 10,9 km/h (2 Bft) W-SW 247 3,8 C 28,2 km/h (4 Bft)
15.11.2015 17:15 13,7 C 13,7 C 51 % 1019,7 hPa 0,0 mm 10,1 km/h (2 Bft) S 180 3,8 C 11,1 km/h (2 Bft)
15.11.2015 17:20 13,8 C 13,6 C 51 % 1019,7 hPa 0,0 mm 10,9 km/h (2 Bft) W-SW 247 3,8 C 12,4 km/h (3 Bft)
15.11.2015 17:25 13,6 C 13,5 C 51 % 1019,7 hPa 0,0 mm 9,3 km/h (2 Bft) W-SW 247 3,7 C 6,0 km/h (2 Bft)
15.11.2015 17:30 13,4 C 13,3 C 51 % 1019,7 hPa 0,0 mm 8,3 km/h (2 Bft) W-SW 247 3,5 C 22,0 km/h (4 Bft)
15.11.2015 17:35 13,7 C 13,5 C 52 % 1019,5 hPa 0,0 mm 8,3 km/h (2 Bft) W 270 4,0 C 17,3 km/h (3 Bft)
15.11.2015 17:40 13,8 C 13,6 C 51 % 1019,5 hPa 0,0 mm 10,4 km/h (2 Bft) W-SW 247 3,8 C 16,6 km/h (3 Bft)
15.11.2015 17:45 13,7 C 13,5 C 51 % 1019,5 hPa 0,0 mm 11,4 km/h (2 Bft) W 270 3,8 C 11,9 km/h (2 Bft)
15.11.2015 17:50 13,6 C 13,4 C 52 % 1019,5 hPa 0,0 mm 10,4 km/h (2 Bft) W-SW 247 3,9 C 7,5 km/h (2 Bft)
15.11.2015 17:55 13,8 C 13,6 C 52 % 1019,3 hPa 0,0 mm 10,6 km/h (2 Bft) SW 225 4,1 C 14,5 km/h (3 Bft)
15.11.2015 18:00 13,8 C 13,6 C 52 % 1019,3 hPa 0,0 mm 11,1 km/h (2 Bft) SW 225 4,1 C 15,8 km/h (3 Bft)
15.11.2015 18:05 13,8 C 13,7 C 51 % 1019,3 hPa 0,0 mm 9,3 km/h (2 Bft) W 270 3,8 C 14,5 km/h (3 Bft)
15.11.2015 18:10 13,6 C 13,5 C 51 % 1019,3 hPa 0,0 mm 8,5 km/h (2 Bft) W-SW 247 3,7 C 5,7 km/h (1 Bft)
15.11.2015 18:15 13,7 C 13,6 C 52 % 1019,3 hPa 0,0 mm 9,3 km/h (2 Bft) W-SW 247 4,0 C 7,3 km/h (2 Bft)
15.11.2015 18:20 13,7 C 13,5 C 52 % 1019,3 hPa 0,0 mm 10,1 km/h (2 Bft) W-SW 247 4,0 C 17,1 km/h (3 Bft)
15.11.2015 18:25 13,7 C 13,5 C 52 % 1019,3 hPa 0,0 mm 9,8 km/h (2 Bft) W 270 4,0 C 19,4 km/h (3 Bft)
15.11.2015 18:30 13,6 C 13,5 C 52 % 1019,3 hPa 0,0 mm 9,6 km/h (2 Bft) W 270 3,9 C 7,0 km/h (2 Bft)
15.11.2015 18:35 13,7 C 13,5 C 52 % 1019,4 hPa 0,0 mm 10,4 km/h (2 Bft) W 270 4,0 C 19,4 km/h (3 Bft)
15.11.2015 18:40 13,7 C 13,5 C 52 % 1019,4 hPa 0,0 mm 9,8 km/h (2 Bft) W 270 4,0 C 11,4 km/h (2 Bft)
15.11.2015 18:45 13,8 C 13,6 C 52 % 1019,4 hPa 0,0 mm 10,4 km/h (2 Bft) SW 225 4,1 C 20,5 km/h (4 Bft)
15.11.2015 18:50 13,6 C 13,5 C 52 % 1019,4 hPa 0,0 mm 10,1 km/h (2 Bft) W 270 3,9 C 9,1 km/h (2 Bft)
15.11.2015 18:55 13,6 C 13,5 C 52 % 1019,6 hPa 0,0 mm 9,3 km/h (2 Bft) W-SW 247 3,9 C 11,7 km/h (2 Bft)
15.11.2015 19:00 13,7 C 13,5 C 52 % 1019,6 hPa 0,0 mm 10,4 km/h (2 Bft) W-NW 292 4,0 C 25,4 km/h (4 Bft)
15.11.2015 19:05 13,7 C 13,5 C 52 % 1019,6 hPa 0,0 mm 10,9 km/h (2 Bft) W-SW 247 4,0 C 14,2 km/h (3 Bft)
15.11.2015 19:10 13,9 C 13,6 C 52 % 1019,6 hPa 0,0 mm 11,7 km/h (2 Bft) SW 225 4,2 C 18,6 km/h (3 Bft)
15.11.2015 19:15 13,9 C 13,6 C 51 % 1019,3 hPa 0,0 mm 12,4 km/h (3 Bft) W 270 3,9 C 8,0 km/h (2 Bft)
15.11.2015 19:20 13,7 C 13,5 C 52 % 1019,3 hPa 0,0 mm 11,7 km/h (2 Bft) W-SW 247 4,0 C 10,9 km/h (2 Bft)
15.11.2015 19:25 13,5 C 13,4 C 52 % 1019,3 hPa 0,0 mm 9,8 km/h (2 Bft) W-NW 292 3,8 C 11,1 km/h (2 Bft)
15.11.2015 19:30 13,8 C 13,6 C 52 % 1019,3 hPa 0,0 mm 10,1 km/h (2 Bft) W 270 4,1 C 12,9 km/h (3 Bft)
15.11.2015 19:35 13,8 C 13,6 C 52 % 1019,6 hPa 0,0 mm 10,6 km/h (2 Bft) W 270 4,1 C 14,5 km/h (3 Bft)
15.11.2015 19:40 13,6 C 13,5 C 52 % 1019,6 hPa 0,0 mm 10,6 km/h (2 Bft) NW 315 3,9 C 9,8 km/h (2 Bft)
15.11.2015 19:45 13,4 C 13,3 C 52 % 1019,6 hPa 0,0 mm 9,8 km/h (2 Bft) W-SW 247 3,7 C 11,1 km/h (2 Bft)
15.11.2015 19:50 13,4 C 13,3 C 52 % 1019,6 hPa 0,0 mm 9,1 km/h (2 Bft) W-SW 247 3,7 C 6,0 km/h (2 Bft)
15.11.2015 19:55 13,4 C 13,3 C 52 % 1019,7 hPa 0,0 mm 8,5 km/h (2 Bft) W-NW 292 3,7 C 13,7 km/h (3 Bft)
15.11.2015 20:00 13,6 C 13,4 C 52 % 1019,7 hPa 0,0 mm 8,8 km/h (2 Bft) W-SW 247 3,9 C 14,5 km/h (3 Bft)
15.11.2015 20:05 13,6 C 13,5 C 52 % 1019,7 hPa 0,0 mm 9,8 km/h (2 Bft) W-SW 247 3,9 C 8,8 km/h (2 Bft)
15.11.2015 20:10 13,5 C 13,4 C 52 % 1019,7 hPa 0,0 mm 9,3 km/h (2 Bft) N-NW 337 3,8 C 7,3 km/h (2 Bft)
15.11.2015 20:15 13,3 C 13,2 C 52 % 1019,8 hPa 0,0 mm 8,5 km/h (2 Bft) SW 225 3,7 C 14,0 km/h (3 Bft)
15.11.2015 20:20 13,5 C 13,3 C 52 % 1019,8 hPa 0,0 mm 9,6 km/h (2 Bft) W-SW 247 3,8 C 11,9 km/h (2 Bft)
15.11.2015 20:25 13,2 C 13,1 C 52 % 1019,8 hPa 0,0 mm 9,3 km/h (2 Bft) W-SW 247 3,6 C 20,5 km/h (4 Bft)
15.11.2015 20:30 13,3 C 13,2 C 52 % 1019,8 hPa 0,0 mm 8,0 km/h (2 Bft) W-SW 247 3,7 C 9,6 km/h (2 Bft)
15.11.2015 20:35 13,5 C 13,3 C 52 % 1019,6 hPa 0,0 mm 9,6 km/h (2 Bft) W 270 3,8 C 16,3 km/h (3 Bft)
15.11.2015 20:40 13,5 C 13,3 C 52 % 1019,6 hPa 0,0 mm 9,8 km/h (2 Bft) SW 225 3,8 C 14,8 km/h (3 Bft)
15.11.2015 20:45 13,7 C 13,5 C 51 % 1019,6 hPa 0,0 mm 11,4 km/h (2 Bft) W-SW 247 3,8 C 15,3 km/h (3 Bft)
15.11.2015 20:50 13,4 C 13,2 C 51 % 1019,6 hPa 0,0 mm 11,9 km/h (2 Bft) W-NW 292 3,5 C 18,1 km/h (3 Bft)
15.11.2015 20:55 13,1 C 13,1 C 52 % 1019,8 hPa 0,0 mm 9,1 km/h (2 Bft) W-SW 247 3,5 C 8,3 km/h (2 Bft)
15.11.2015 20:57 13,2 C 13,1 C 52 % 1019,8 hPa 0,0 mm 9,3 km/h (2 Bft) W-SW 247 3,6 C 11,4 km/h (2 Bft)
15.11.2015 21:00 13,2 C 13,1 C 52 % 1019,8 hPa 0,0 mm 9,3 km/h (2 Bft) W-SW 247 3,6 C 11,4 km/h (2 Bft)
15.11.2015 21:05 13,3 C 13,2 C 52 % 1019,8 hPa 0,0 mm 9,1 km/h (2 Bft) W-SW 247 3,7 C 8,8 km/h (2 Bft)
15.11.2015 21:10 13,0 C 12,9 C 52 % 1019,8 hPa 0,0 mm 8,8 km/h (2 Bft) W 270 3,4 C 11,9 km/h (2 Bft)
15.11.2015 21:15 13,0 C 12,9 C 52 % 1019,8 hPa 0,0 mm 8,3 km/h (2 Bft) SW 225 3,4 C 11,9 km/h (2 Bft)
15.11.2015 21:20 12,9 C 12,8 C 54 % 1019,8 hPa 0,0 mm 8,8 km/h (2 Bft) W 270 3,8 C 9,3 km/h (2 Bft)
15.11.2015 21:25 12,9 C 12,8 C 54 % 1019,8 hPa 0,0 mm 8,5 km/h (2 Bft) W 270 3,8 C 14,8 km/h (3 Bft)
15.11.2015 21:30 13,0 C 12,9 C 52 % 1019,8 hPa 0,0 mm 9,3 km/h (2 Bft) W 270 3,4 C 15,3 km/h (3 Bft)
15.11.2015 21:35 12,8 C 12,7 C 54 % 1019,2 hPa 0,0 mm 9,3 km/h (2 Bft) SW 225 3,7 C 11,4 km/h (2 Bft)
15.11.2015 21:40 12,9 C 12,8 C 54 % 1019,2 hPa 0,0 mm 8,8 km/h (2 Bft) W 270 3,8 C 11,4 km/h (2 Bft)
15.11.2015 21:45 12,8 C 12,7 C 54 % 1019,2 hPa 0,0 mm 8,0 km/h (2 Bft) W-NW 292 3,7 C 13,7 km/h (3 Bft)
15.11.2015 21:50 12,8 C 12,7 C 54 % 1019,2 hPa 0,0 mm 7,5 km/h (2 Bft) SW 225 3,7 C 8,0 km/h (2 Bft)
15.11.2015 21:55 12,7 C 12,6 C 55 % 1019,2 hPa 0,0 mm 7,8 km/h (2 Bft) S 180 3,9 C 17,1 km/h (3 Bft)
15.11.2015 22:00 13,0 C 12,9 C 53 % 1019,2 hPa 0,0 mm 7,8 km/h (2 Bft) O-SO 112 3,6 C 10,1 km/h (2 Bft)
15.11.2015 22:05 12,9 C 12,8 C 54 % 1019,2 hPa 0,0 mm 8,0 km/h (2 Bft) W-SW 247 3,8 C 12,2 km/h (2 Bft)
15.11.2015 22:10 12,7 C 12,6 C 54 % 1019,2 hPa 0,0 mm 7,3 km/h (2 Bft) W-SW 247 3,6 C 12,9 km/h (3 Bft)
15.11.2015 22:15 12,8 C 12,7 C 54 % 1019,6 hPa 0,0 mm 8,3 km/h (2 Bft) W-SW 247 3,7 C 12,9 km/h (3 Bft)
15.11.2015 22:20 12,9 C 12,7 C 54 % 1019,6 hPa 0,0 mm 9,3 km/h (2 Bft) W 270 3,8 C 11,9 km/h (2 Bft)
15.11.2015 22:25 12,8 C 12,7 C 55 % 1019,6 hPa 0,0 mm 9,3 km/h (2 Bft) SW 225 4,0 C 15,5 km/h (3 Bft)
15.11.2015 22:30 12,9 C 12,7 C 55 % 1019,6 hPa 0,0 mm 9,1 km/h (2 Bft) W 270 4,1 C 6,7 km/h (2 Bft)
15.11.2015 22:35 12,9 C 12,8 C 54 % 1019,7 hPa 0,0 mm 9,1 km/h (2 Bft) W-SW 247 3,8 C 14,2 km/h (3 Bft)
15.11.2015 22:40 13,0 C 12,8 C 53 % 1019,7 hPa 0,0 mm 9,3 km/h (2 Bft) S-SW 202 3,6 C 22,5 km/h (4 Bft)
15.11.2015 22:45 12,9 C 12,7 C 54 % 1019,7 hPa 0,0 mm 9,6 km/h (2 Bft) W 270 3,8 C 7,8 km/h (2 Bft)
15.11.2015 22:50 12,8 C 12,7 C 54 % 1019,7 hPa 0,0 mm 8,3 km/h (2 Bft) W-SW 247 3,7 C 6,0 km/h (2 Bft)
15.11.2015 22:55 12,7 C 12,6 C 54 % 1019,4 hPa 0,0 mm 7,8 km/h (2 Bft) S-SW 202 3,6 C 10,4 km/h (2 Bft)
15.11.2015 23:00 12,6 C 12,5 C 54 % 1019,4 hPa 0,0 mm 7,8 km/h (2 Bft) W-SW 247 3,5 C 13,2 km/h (3 Bft)
15.11.2015 23:05 12,5 C 12,4 C 55 % 1019,4 hPa 0,0 mm 7,5 km/h (2 Bft) SW 225 3,7 C 12,9 km/h (3 Bft)
15.11.2015 23:10 12,5 C 12,4 C 55 % 1019,4 hPa 0,0 mm 7,8 km/h (2 Bft) W-SW 247 3,7 C 16,1 km/h (3 Bft)
15.11.2015 23:15 12,6 C 12,5 C 55 % 1019,5 hPa 0,0 mm 8,0 km/h (2 Bft) W-SW 247 3,8 C 6,0 km/h (2 Bft)
15.11.2015 23:20 12,6 C 12,5 C 55 % 1019,5 hPa 0,0 mm 8,3 km/h (2 Bft) S-SW 202 3,8 C 11,1 km/h (2 Bft)
15.11.2015 23:25 12,7 C 12,5 C 55 % 1019,5 hPa 0,0 mm 9,3 km/h (2 Bft) W-SW 247 3,9 C 12,4 km/h (3 Bft)
15.11.2015 23:30 12,7 C 12,5 C 55 % 1019,5 hPa 0,0 mm 9,8 km/h (2 Bft) S 180 3,9 C 12,9 km/h (3 Bft)
15.11.2015 23:35 12,7 C 12,6 C 54 % 1019,7 hPa 0,0 mm 8,8 km/h (2 Bft) SW 225 3,6 C 7,0 km/h (2 Bft)
15.11.2015 23:40 12,6 C 12,5 C 54 % 1019,7 hPa 0,0 mm 8,8 km/h (2 Bft) W-SW 247 3,5 C 8,8 km/h (2 Bft)
15.11.2015 23:45 12,6 C 12,5 C 54 % 1019,7 hPa 0,0 mm 8,3 km/h (2 Bft) W-SW 247 3,5 C 11,7 km/h (2 Bft)
15.11.2015 23:50 12,4 C 12,3 C 55 % 1019,7 hPa 0,0 mm 8,0 km/h (2 Bft) W-SW 247 3,6 C 8,0 km/h (2 Bft)
15.11.2015 23:55 12,3 C 12,2 C 55 % 1019,8 hPa 0,0 mm 7,8 km/h (2 Bft) W 270 3,5 C 8,5 km/h (2 Bft)
_ Min-Zeit 00:00 00:00 05:55 06:50 - 03:10 - - 05:55 03:10
Minimum _ 6,3 C 4,2 C 38 % 1018,4 hPa - 0,0 km/h (0 Bft) - - -3,2 C 0,0 km/h (0 Bft)
_ Max-Zeit 13:45 13:55 00:00 03:30 23:55 13:20 - - 11:30 13:55
Maximum _ 17,9 C 20,6 C 74 % 1025,2 hPa 0,0 mm 22,8 km/h
W-NW (4 Bft)
- - 6,9 C 58,0 km/h
W (7 Bft)
Durchschnitt _ 12,9 C 12,6 C 50 % 1020,1 hPa #0,0 mm 11,2 km/h (2 Bft) W-SW - 2,6 C 15,5 km/h (3 Bft)